TimeEST,TemperatureF,Dew PointF,Humidity,Sea Level PressureIn,VisibilityMPH,Wind Direction,Wind SpeedMPH,Gust SpeedMPH,PrecipitationIn,Events,Conditions,WindDirDegrees,DateUTC
12:53 AM,42.1,28.0,58,30.06,10.0,NW,8.1,-,N/A,,Overcast,310,2012-11-04 04:53:00
1:53 AM,41.0,28.9,62,30.06,10.0,NW,3.5,-,N/A,,Overcast,310,2012-11-04 05:53:00
1:53 AM,42.1,28.0,58,30.06,10.0,West,4.6,-,N/A,,Overcast,280,2012-11-04 06:53:00
2:53 AM,41.0,28.9,62,30.05,10.0,West,3.5,-,N/A,,Overcast,260,2012-11-04 07:53:00
3:53 AM,39.9,30.0,68,30.04,10.0,WNW,3.5,-,N/A,,Overcast,300,2012-11-04 08:53:00
4:53 AM,41.0,30.0,65,30.05,10.0,NW,6.9,-,N/A,,Overcast,310,2012-11-04 09:53:00
5:53 AM,41.0,28.9,62,30.05,10.0,NNW,8.1,-,N/A,,Overcast,330,2012-11-04 10:53:00
6:53 AM,41.0,28.9,62,30.06,10.0,NW,12.7,-,N/A,,Overcast,310,2012-11-04 11:53:00
7:53 AM,41.0,28.9,62,30.08,10.0,NNW,3.5,-,N/A,,Overcast,330,2012-11-04 12:53:00
8:53 AM,42.1,30.0,62,30.07,10.0,NW,5.8,-,N/A,,Overcast,310,2012-11-04 13:53:00
9:53 AM,42.1,28.0,58,30.07,10.0,NW,6.9,-,N/A,,Overcast,310,2012-11-04 14:53:00
10:53 AM,43.0,28.0,56,30.07,10.0,NNW,5.8,-,N/A,,Overcast,330,2012-11-04 15:53:00
11:53 AM,44.1,28.9,55,30.05,10.0,NNW,6.9,-,N/A,,Overcast,340,2012-11-04 16:53:00
12:53 PM,45.0,28.0,52,30.04,10.0,NW,10.4,-,N/A,,Overcast,320,2012-11-04 17:53:00
1:53 PM,45.0,27.0,49,30.04,10.0,NNW,10.4,-,N/A,,Mostly Cloudy,340,2012-11-04 18:53:00
2:53 PM,44.1,27.0,51,30.03,10.0,North,6.9,-,N/A,,Overcast,10,2012-11-04 19:53:00
3:53 PM,43.0,26.1,51,30.04,10.0,North,9.2,-,N/A,,Mostly Cloudy,350,2012-11-04 20:53:00
4:53 PM,41.0,27.0,57,30.04,10.0,NW,8.1,-,N/A,,Partly Cloudy,320,2012-11-04 21:53:00
5:53 PM,41.0,27.0,57,30.05,10.0,NW,6.9,-,N/A,,Overcast,310,2012-11-04 22:53:00
6:53 PM,41.0,28.0,60,30.06,10.0,NW,5.8,-,N/A,,Overcast,310,2012-11-04 23:53:00
7:53 PM,41.0,28.0,60,30.06,10.0,NW,5.8,-,N/A,,Overcast,320,2012-11-05 00:53:00
8:53 PM,41.0,28.0,60,30.06,10.0,NW,6.9,-,N/A,,Overcast,310,2012-11-05 01:53:00
9:53 PM,41.0,28.0,60,30.06,10.0,NNW,8.1,-,N/A,,Overcast,340,2012-11-05 02:53:00
10:53 PM,39.9,28.9,65,30.06,10.0,NW,6.9,-,N/A,,Overcast,320,2012-11-05 03:53:00